User: anonymous   Login
Location: Beccas
(43.4309°N, 0.1528°E)
Time: 07:33:02
(UTC+00:00)
Language:

BREEZE M DEB (TANK) - Orbit

View from above orbital plane
View from above orbital plane
View from above satellite
View from above satellite

Ground track
Ground track

The orbit data is extracted from the following two-line orbital elements,

1 33597U 09007C   21318.08563291  .99999999  28493-4  31245-2 0  9991
2 33597  44.4861 162.1233 1594566  80.1030  42.5196 12.84067131109596
Epoch (UTC): 14 November 2021 02:03:18
Eccentricity: 0.1594566
inclination: 44.4861°
perigee height: 97 km
apogee height: 2553 km
right ascension of ascending node: 162.1233°
argument of perigee: 80.1030°
revolutions per day: 12.84067131
mean anomaly at epoch: 42.5196°
orbit number at epoch: 10959

The dashed part of the orbit path shows where the satellite is in the earth's shadow,  

DLR